Terminal Aerodrome Forecast
Issued by NWS Sterling, VA

Current Version | Previous Version | Graphics & Text | Print | Product List | Glossary On
Versions: 1 2 3 4 5 6 7 8 9 10 11 12 13 14 15 16 17 18 19 20
000
FTUS41 KLWX 252100 AAA
TAFDCA
TAF AMD
KDCA 252101Z 2521/2618 05007KT P6SM FEW060 SCT250
     FM260200 VRB04KT P6SM FEW250
     FM261500 15003KT P6SM FEW050=

USA.gov is the U.S. government's official web portal to all federal, state and local government web resources and services.